RH
4 4 3 3 4 5 73 100 100 99 99 100 94 90 95 72 32 24 25 30 40 62 46 63 97 98 93 98 97 98 94 88 92 92 95 90 96 79 94 100 98 98 88 84 81 77 88 87 98 91 88 83 76 70
4 4 3 3 4 68 100 100 100 100 99 100 100 96 81 58 30 25 30 33 44 64 46 57 99 82 92 98 97 97 98 98 98 96 97 99 100 97 92 97 91 86 83 92 81 97 99 98 91 92 93 92 92 91
3 4 3 3 5 87 100 100 100 100 100 100 100 98 86 71 30 28 36 39 48 72 48 39 88 91 88 98 95 98 98 98 98 97 98 98 97 96 97 93 99 90 98 94 99 99 97 95 97 90 78 77 76 67
3 4 3 3 4 83 99 100 100 99 100 96 98 98 100 74 30 32 41 42 52 68 56 38 68 100 94 94 95 95 98 98 97 98 97 98 98 97 97 96 93 96 96 97 85 94 87 80 82 80 81 79 73 71
3 4 3 3 4 76 100 100 99 89 100 98 100 100 99 68 31 39 49 45 52 66 67 34 52 81 95 91 98 95 98 98 98 98 98 99 97 99 95 99 99 98 97 83 86 84 71 66 45 27 21 19 18 18
3 4 3 3 6 93 100 100 99 91 96 100 100 100 99 54 31 43 48 43 43 53 92 43 50 87 96 95 93 97 96 96 94 97 97 97 96 94 92 95 93 84 70 52 46 41 36 27 20 18 20 23 24 25
3 4 3 3 8 92 100 100 100 97 100 100 100 100 85 54 32 38 39 52 47 55 88 92 44 47 98 94 97 100 92 85 67 66 62 58 46 55 70 62 52 47 51 53 52 51 49 33 27 28 28 28 31 39
3 4 3 3 6 81 100 98 85 100 100 100 100 100 98 84 42 40 44 53 55 61 87 100 90 39 49 90 98 98 98 87 86 85 77 73 58 52 58 65 68 64 58 56 53 49 41 34 30 30 33 44 62 73
3 4 4 4 4 61 100 86 94 100 100 100 100 100 99 85 55 45 45 55 57 76 97 62 86 98 46 36 68 99 98 96 94 82 82 66 63 53 54 78 94 72 57 53 49 42 32 31 32 33 62 82 69 51
4 4 4 4 7 81 98 87 100 100 100 100 100 100 100 100 98 68 57 59 52 44 47 53 66 95 100 86 45 43 49 72 89 93 94 85 64 59 66 86 78 65 62 58 49 38 33 30 41 66 63 65 73 91
4 5 5 5 14 95 100 99 100 100 100 100 97 94 97 100 100 99 84 62 53 54 59 48 56 64 82 92 93 81 51 42 43 50 62 72 76 87 90 87 79 58 46 40 34 30 30 37 67 71 85 88 89 89
4 6 5 6 29 99 100 100 100 100 100 88 84 94 100 100 100 95 90 82 66 59 64 46 47 52 56 65 70 85 90 89 62 40 38 36 40 41 42 41 38 37 36 34 33 36 51 73 84 87 77 73 70 60
4 11 11 7 46 100 100 100 100 100 100 100 100 100 100 96 92 71 62 61 64 62 66 57 61 64 59 52 54 62 68 61 74 78 70 62 71 65 64 55 49 51 57 66 74 72 58 53 52 53 57 60 58 53
5 36 80 51 99 100 100 100 99 100 100 100 100 97 99 86 75 64 68 72 82 83 86 92 99 98 93 79 70 63 56 51 48 43 49 58 65 66 64 62 57 66 68 57 49 47 45 45 48 52 55 56 52 51
5 57 100 90 100 100 100 100 100 100 100 100 95 95 85 70 72 78 82 90 97 100 100 100 99 97 97 91 78 67 64 58 51 48 48 47 44 42 41 41 42 40 38 39 41 45 50 52 53 54 53 52 65 91
8 60 100 100 100 100 100 100 100 100 100 100 98 78 78 84 82 93 100 100 100 100 100 96 94 95 94 93 81 75 72 71 69 63 57 54 51 49 47 46 48 50 53 57 62 67 69 66 61 62 81 99 96 85
7 58 100 100 100 100 100 100 100 100 100 100 88 79 82 77 81 100 100 100 100 99 96 92 100 100 96 97 96 97 99 99 92 85 83 73 63 65 68 68 68 70 75 83 88 92 97 100 100 100 100 90 80 72
4 51 100 100 100 100 100 100 100 100 100 92 86 84 84 92 100 100 100 100 96 90 94 98 99 95 94 100 100 100 100 98 91 86 83 85 87 86 81 80 83 90 95 98 100 100 100 100 100 96 87 81 83 85
4 6 76 100 100 100 100 100 100 100 98 95 84 82 77 88 100 100 100 100 100 100 100 100 100 98 100 100 100 100 100 100 100 100 100 100 99 100 100 100 100 100 100 100 100 100 100 100 96 91 89 89 86 82
5 4 5 61 100 100 100 100 100 99 100 100 96 94 89 86 91 92 100 100 100 100 100 99 100 100 100 100 100 100 100 100 100 100 100 100 100 100 100 100 100 100 100 100 100 100 100 98 94 92 91 88 83 79
5 5 4 4 44 100 100 100 100 100 100 100 100 100 100 96 92 93 94 100 100 99 99 99 100 100 100 100 100 100 100 100 100 100 100 99 99 98 100 100 100 100 100 100 98 94 91 87 83 79 78 77 74 68
6 6 6 5 6 50 100 100 100 100 100 100 100 100 100 100 100 100 100 100 98 100 99 100 100 100 100 100 100 100 100 100 100 100 100 100 100 100 100 100 100 99 97 94 88 82 78 76 72 70 67 66 68 72
7 6 7 8 6 9 60 100 100 100 99 100 100 100 100 100 100 100 99 100 100 97 98 100 100 100 100 100 100 100 100 100 100 100 100 100 100 100 100 100 99 98 96 91 86 82 78 75 73 73 75 76 76 71
8 7 8 10 10 8 14 73 100 100 99 100 100 100 100 100 100 100 95 98 100 100 100 100 100 100 100 100 100 100 100 100 100 99 99 100 100 100 97 94 91 90 90 89 84 78 73 74 77 78 77 73 68 65
9 9 10 12 15 12 10 32 98 100 100 100 100 100 100 100 100 99 96 100 100 100 100 100 100 100 100 100 100 100 100 100 100 100 100 100 100 97 93 88 85 83 81 80 78 78 77 77 77 72 67 64 64 68
11 12 12 13 18 19 12 14 86 100 100 100 100 100 100 100 100 99 98 100 100 100 100 100 100 100 100 100 100 100 100 100 100 100 100 97 96 95 94 92 91 89 88 85 82 79 77 73 69 67 66 70 72 63
15 14 15 14 16 23 19 22 94 100 100 100 100 100 100 100 99 94 100 100 100 100 100 100 100 100 100 100 100 100 100 100 100 100 99 99 98 96 95 92 89 88 87 84 81 75 71 71 71 73 75 69 55 42
24 16 16 16 18 23 31 52 100 100 100 100 100 100 100 100 97 96 100 100 100 100 100 100 100 100 100 100 100 100 100 100 100 100 100 100 100 98 96 94 89 83 77 73 75 76 74 73 74 71 60 44 32 22
42 19 18 17 21 29 50 100 100 100 100 100 100 100 100 100 100 100 100 100 100 100 100 100 100 100 100 100 100 100 100 100 100 99 99 98 95 96 93 87 78 78 78 72 68 69 73 75 64 44 31 21 13 11
57 30 19 19 22 38 68 100 100 100 100 100 100 100 100 100 100 100 100 100 100 100 100 100 100 100 100 100 100 100 100 100 100 99 98 100 100 100 89 80 79 71 66 70 76 75 60 44 29 18 12 11 20 43
78 65 36 23 21 30 53 98 100 100 100 100 100 100 100 100 100 100 100 100 100 100 100 100 100 100 100 100 100 100 100 100 100 100 99 95 92 88 79 75 70 71 74 70 57 42 27 16 11 12 26 52 71 77
76 85 76 52 32 23 28 54 85 100 100 99 100 100 100 100 100 100 100 100 100 100 100 100 100 100 100 100 100 100 100 100 96 88 80 77 77 73 70 73 72 62 47 32 20 12 10 14 38 65 78 81 77 49
91 88 99 90 68 49 32 25 30 49 76 91 87 87 91 92 95 99 100 100 100 100 100 100 100 100 100 100 97 92 86 82 78 75 73 73 74 71 62 46 32 20 13 10 11 29 59 75 85 86 63 23 13 12
Wind_Speed
40 26 16 24 45 56 61 60 56 51 42 37 42 43 47 40 38 34 30 26 21 19 20 23 24 20 18 18 23 24 20 20 20 23 23 23 23 21 22 22 19 21 26 26 23 20 15 16 17 19 16 20 21 19
39 25 14 26 46 63 59 61 55 48 43 38 36 46 42 41 38 35 31 26 22 20 21 25 23 21 19 17 23 25 24 21 20 21 21 28 28 26 25 23 23 25 25 24 23 14 16 17 16 18 21 20 19 23
38 22 13 28 48 63 61 59 55 53 40 40 45 44 44 41 37 34 31 27 22 21 21 26 23 21 18 19 19 26 26 23 21 20 24 21 23 27 26 21 23 25 24 25 24 23 20 18 15 16 20 20 19 18
35 21 14 29 49 64 59 60 57 55 42 47 47 46 44 40 38 35 31 27 24 21 21 26 27 22 25 24 29 25 20 28 27 23 25 27 23 21 27 22 17 21 23 21 15 14 14 14 13 13 16 17 19 20
33 19 15 29 49 64 63 61 58 51 40 44 45 45 44 40 39 37 33 29 26 23 20 25 27 24 22 25 30 36 32 30 29 31 26 27 27 23 24 23 19 18 15 14 12 13 11 11 12 13 15 18 21 24
29 17 16 29 48 65 63 59 52 48 37 40 48 48 47 42 40 38 35 32 27 23 22 22 25 26 23 25 24 34 28 23 23 23 23 23 23 21 21 20 18 16 15 14 12 11 12 13 15 18 20 23 26 28
24 14 17 31 51 64 64 59 56 44 38 40 46 48 45 42 41 40 37 31 28 25 22 21 25 28 25 25 25 31 34 30 27 26 24 23 23 24 22 19 18 16 14 14 16 17 18 19 20 23 26 29 31 32
19 12 19 33 51 64 64 62 54 43 41 41 45 51 52 46 43 41 36 31 30 28 26 25 23 26 30 27 26 28 34 40 35 30 29 27 29 29 26 20 18 19 21 21 21 22 23 24 26 29 32 33 31 31
14 12 21 33 51 63 62 57 50 45 39 41 42 51 53 49 44 40 38 37 35 31 33 29 25 23 27 30 29 28 29 32 36 40 39 36 34 32 25 22 24 26 27 26 27 28 29 30 32 34 32 30 30 30
10 13 21 34 52 61 58 55 48 44 44 46 39 38 36 39 45 42 40 40 39 38 35 29 25 23 23 25 29 30 30 30 32 36 35 39 37 31 31 28 29 32 35 34 33 34 33 34 36 33 31 32 35 37
9 14 23 37 54 62 57 54 48 42 42 42 47 46 41 35 39 47 47 44 43 40 37 32 27 28 27 25 25 28 30 32 32 29 31 33 30 34 41 38 34 34 35 35 36 37 38 38 36 36 36 33 31 31
10 18 28 38 56 59 56 52 47 44 39 36 40 45 45 44 46 45 46 47 46 41 37 34 31 30 28 27 26 25 25 26 31 32 33 34 28 33 36 37 36 37 36 38 39 39 37 36 36 34 33 33 33 33
15 23 31 39 55 58 53 52 47 44 48 46 44 45 45 48 49 47 45 44 44 43 36 33 31 30 30 30 29 28 29 28 27 27 25 23 25 29 32 33 33 34 34 34 33 32 33 34 34 34 34 34 35 34
21 29 33 42 59 57 47 53 53 50 48 46 46 45 41 37 36 37 38 38 39 40 37 37 36 33 31 30 32 31 31 31 31 27 22 24 27 28 29 28 28 30 31 32 33 34 34 34 34 34 34 33 33 32
26 35 39 44 51 54 47 48 54 49 48 48 49 44 36 31 27 29 28 30 33 34 37 40 38 39 36 38 37 36 34 34 30 25 26 27 28 29 29 29 31 32 32 32 33 33 34 34 34 33 32 32 33 32
30 40 44 46 46 49 49 48 47 50 52 52 50 48 42 37 33 30 31 31 34 36 37 42 42 40 39 40 37 37 35 32 29 28 28 28 28 28 29 29 30 30 30 30 31 32 33 33 32 32 33 32 31 32
28 44 47 49 49 51 52 51 50 52 49 52 50 49 46 40 35 33 32 31 33 33 33 36 38 38 36 37 36 33 29 28 30 31 32 32 31 30 29 30 29 28 28 30 31 31 31 32 31 30 31 32 33 34
19 43 48 49 48 49 50 52 51 52 54 55 55 51 47 42 38 37 34 32 32 34 33 33 34 34 33 30 27 27 25 25 26 27 28 30 31 32 32 33 33 32 31 31 31 32 32 32 32 32 33 34 36 39
12 26 47 48 46 44 50 52 51 52 55 56 55 54 48 46 43 37 35 35 34 32 28 26 30 31 30 27 25 25 26 26 24 23 23 23 23 23 23 24 26 28 30 31 32 33 33 33 34 35 37 39 41 44
14 17 30 48 45 43 42 45 50 53 55 56 58 55 52 52 48 43 40 36 37 37 35 31 26 27 27 27 26 26 28 29 28 27 27 26 25 25 25 26 27 28 29 30 31 33 35 37 38 39 41 43 46 48
18 16 21 33 48 45 43 45 45 50 56 57 58 58 57 56 54 49 47 44 40 37 39 38 33 29 29 28 27 27 28 29 28 30 31 31 30 30 30 31 30 30 30 31 33 35 37 39 41 43 44 47 50 53
21 16 19 26 36 50 46 44 45 45 50 56 58 58 56 57 57 52 49 48 47 45 41 37 35 34 36 35 34 33 33 33 33 32 31 30 30 30 30 30 30 31 33 34 36 38 39 41 44 47 49 52 55 57
23 18 18 23 29 40 50 48 44 45 46 49 53 58 57 55 55 55 54 52 50 50 50 46 41 40 41 41 40 38 37 37 38 37 35 35 35 34 34 35 36 37 38 39 41 42 45 47 50 52 54 55 57 57
24 20 16 19 26 32 41 50 50 47 45 47 47 47 50 54 57 55 53 51 51 52 52 51 50 50 50 48 47 44 42 41 41 41 41 39 38 38 38 39 40 42 43 45 47 48 50 52 54 55 56 56 56 56
23 19 16 16 21 26 33 42 48 51 49 46 45 46 45 43 43 46 49 49 49 51 53 53 51 49 48 47 46 46 45 45 43 42 41 40 40 41 42 44 44 45 46 48 49 51 52 54 54 55 55 54 53 51
22 18 15 15 18 22 28 35 41 41 47 49 49 47 47 45 44 43 39 37 36 36 38 39 41 43 46 46 43 42 41 41 39 38 39 42 43 44 44 44 45 46 47 49 51 52 52 52 53 53 52 50 49 50
23 18 14 14 17 20 24 30 35 37 37 39 45 48 47 47 46 43 40 38 36 36 35 34 34 35 36 36 37 38 39 39 39 41 42 43 43 44 44 44 46 48 50 51 52 52 52 52 51 49 48 48 52 59
23 18 12 11 16 19 23 26 31 32 35 38 37 40 44 45 44 43 42 40 39 38 38 38 38 39 39 38 38 39 42 42 41 42 43 43 44 44 44 45 45 46 47 49 50 50 50 49 48 47 50 56 60 59
22 18 13 8 14 19 25 25 27 25 27 31 36 37 35 38 39 39 38 39 39 40 40 40 41 41 41 42 43 43 44 44 43 42 41 41 41 42 43 46 49 48 48 48 48 47 46 45 47 53 57 55 51 47
18 19 14 7 9 19 25 29 26 24 22 22 23 27 32 35 33 34 35 36 39 40 40 42 42 41 41 40 40 40 41 42 42 42 43 43 44 46 49 48 47 47 46 44 43 43 47 52 54 51 48 43 39 38
12 15 16 11 4 12 23 29 28 25 27 26 25 24 22 23 29 31 31 30 30 31 33 34 36 38 39 40 41 42 42 43 44 44 46 47 48 49 48 47 47 44 43 44 47 50 51 48 44 39 35 34 37 39
9 8 10 12 9 2 11 22 28 31 30 28 29 28 27 27 28 28 32 34 36 36 36 35 35 35 36 37 38 40 41 41 43 45 46 47 46 47 46 44 43 45 48 48 46 43 39 33 30 32 36 37 39 42
12 11 8 5 6 7 3 7 17 25 30 32 36 35 34 33 31 31 30 31 33 34 34 35 35 36 36 36 37 38 39 41 43 44 44 43 42 43 45 46 46 44 41 36 31 26 26 29 32 34 37 40 41 38
Wind_Direction
332 321 281 215 195 191 190 187 180 193 204 202 205 204 197 194 200 200 202 205 206 206 210 206 209 218 229 222 204 183 195 185 188 188 193 196 194 201 204 200 210 229 225 211 204 200 198 215 225 231 226 224 231 238
331 319 272 211 196 186 185 184 187 193 201 202 202 192 187 192 198 197 199 202 206 205 212 206 213 220 228 223 218 203 199 198 197 201 205 204 204 208 205 212 217 215 208 219 223 220 225 232 228 236 238 235 247 251
330 316 261 206 195 188 184 182 184 190 199 197 199 191 190 190 198 195 198 200 206 205 209 207 210 217 223 195 188 183 181 194 209 204 212 206 210 210 213 215 217 211 221 222 229 227 238 224 231 237 232 249 263 265
327 310 248 204 196 190 182 180 180 189 193 200 199 199 193 193 199 195 196 200 205 208 209 208 212 225 221 204 177 171 192 201 208 202 209 220 232 218 211 212 219 210 215 207 198 202 210 215 220 230 241 254 265 272
324 306 234 203 194 189 182 182 188 198 202 197 200 206 195 198 200 196 195 199 205 210 210 209 212 217 223 222 204 191 193 193 194 197 206 209 208 210 202 206 200 192 187 189 202 215 229 232 241 256 267 274 279 280
321 298 226 200 192 186 182 183 190 197 198 195 198 202 196 199 200 198 197 197 204 210 212 214 213 217 223 227 224 209 185 194 201 199 198 190 194 190 190 184 192 195 201 204 212 229 241 251 258 263 271 276 279 281
316 282 213 197 190 188 182 180 187 193 194 196 198 192 194 199 201 200 198 194 204 212 209 219 216 217 222 228 223 217 201 189 195 196 199 201 202 200 198 200 209 210 218 229 238 244 251 258 265 273 278 280 280 280
310 257 205 195 190 188 184 186 191 193 192 198 199 204 200 195 201 200 199 200 206 209 209 220 221 220 222 224 230 224 214 203 197 200 201 206 208 206 200 209 223 233 240 247 252 256 260 264 270 274 278 278 276 276
300 236 206 193 189 187 186 189 191 188 187 197 199 207 205 197 200 203 200 202 204 198 215 216 213 220 222 223 226 229 231 227 221 216 208 213 208 217 216 231 237 244 254 259 261 262 263 267 273 276 274 273 273 275
281 213 201 188 183 185 185 189 191 187 194 199 193 200 207 213 202 202 207 209 210 212 215 219 217 220 225 225 225 227 234 240 239 235 234 230 227 227 235 248 248 248 253 257 260 262 267 273 274 273 271 273 275 279
253 198 187 184 180 182 185 191 188 188 196 201 208 211 212 219 220 209 208 211 214 217 218 219 217 217 223 227 231 234 236 241 245 244 244 242 241 239 242 247 250 251 254 259 263 266 269 270 267 270 276 278 278 277
217 185 179 181 178 181 188 191 188 191 196 204 206 210 213 220 221 223 220 219 219 218 217 218 220 222 224 229 232 237 240 243 247 247 249 251 252 253 255 257 258 259 261 262 265 267 267 267 268 268 272 273 273 274
202 181 175 176 178 181 187 186 192 193 200 214 211 214 216 221 225 228 228 227 228 224 219 221 225 228 229 230 233 234 237 238 243 245 247 249 247 248 249 252 255 256 257 259 261 261 260 262 264 267 269 270 270 270
197 179 172 179 181 181 181 188 189 196 209 213 211 216 219 223 225 228 229 227 226 224 223 223 228 229 228 231 234 236 239 241 241 243 243 241 242 245 248 249 248 254 257 258 260 262 264 266 267 268 267 267 269 274
196 180 177 185 188 183 186 192 195 195 203 209 219 218 218 223 221 216 211 217 226 230 228 230 231 230 231 233 235 238 242 245 250 254 253 252 252 252 253 253 255 256 258 259 261 263 264 265 265 265 265 267 273 276
196 185 182 185 189 191 189 191 193 193 204 208 214 219 218 223 224 227 237 239 234 236 236 233 234 237 236 238 240 243 248 252 255 255 254 253 251 250 251 251 252 255 257 259 260 260 261 262 263 266 271 272 272 275
201 192 188 185 187 190 193 193 196 198 200 205 211 214 214 221 227 224 223 225 225 228 234 233 234 236 238 238 241 245 251 252 250 248 249 247 247 247 247 249 251 254 258 260 261 261 262 264 265 266 268 270 273 278
224 201 199 194 191 192 197 201 200 203 201 204 208 211 217 218 218 216 219 215 217 220 224 225 227 230 234 239 242 242 241 248 250 248 248 249 250 251 252 253 256 258 257 258 260 262 263 265 268 270 273 276 280 284
267 223 208 207 204 202 203 206 208 207 205 206 210 215 215 217 214 214 217 213 213 215 216 218 227 231 234 239 242 240 238 248 249 247 248 252 254 256 257 256 256 256 257 260 262 263 267 270 272 273 276 280 283 287
293 245 223 215 214 213 211 212 212 212 211 211 213 214 216 216 217 215 215 217 217 219 219 216 221 232 236 241 239 237 240 246 249 251 254 256 257 257 255 256 257 259 260 262 264 266 268 271 275 278 281 284 287 290
310 264 235 222 218 216 216 214 216 215 214 215 216 219 220 220 222 222 218 220 225 227 223 221 226 234 233 233 235 239 242 247 250 249 251 255 257 258 257 257 258 260 262 264 267 270 272 275 279 282 285 288 290 293
319 282 245 228 218 218 217 218 218 217 217 217 219 220 224 225 226 227 224 225 230 230 232 233 234 236 233 233 235 239 244 248 250 252 254 255 256 258 259 260 261 263 264 267 270 274 278 282 284 286 288 290 292 294
316 302 256 233 221 216 216 216 219 219 219 219 222 224 224 226 230 232 231 226 228 232 231 230 230 231 237 241 245 248 251 252 250 251 254 258 260 261 262 264 266 268 270 272 275 277 279 281 284 286 289 291 294 296
314 306 278 241 226 217 213 213 216 218 219 219 219 223 226 230 229 230 232 233 232 232 234 238 240 240 241 242 245 250 252 253 256 260 261 262 262 263 264 267 269 270 271 272 275 277 280 283 286 289 292 294 295 297
317 307 283 249 227 219 215 211 210 215 216 218 220 221 222 224 227 231 235 237 237 238 240 240 240 242 245 247 249 251 255 258 260 262 262 261 261 262 263 264 267 270 273 274 277 279 281 285 288 291 294 295 296 297
324 314 289 254 232 220 214 211 208 210 214 217 219 221 223 225 227 227 227 229 232 234 237 239 243 246 247 249 250 252 253 255 255 253 253 257 259 260 263 266 269 271 272 274 277 281 284 288 291 293 294 294 294 296
328 317 294 257 236 222 210 206 205 207 207 210 215 218 221 224 227 227 227 229 230 231 231 232 233 235 237 237 238 238 240 240 245 248 251 254 257 259 262 264 267 270 274 277 281 285 288 291 291 291 292 294 299 303
336 326 307 262 232 218 205 200 200 205 210 210 209 212 216 220 225 227 230 232 232 233 234 234 235 236 238 239 239 236 237 241 242 243 245 249 252 257 261 263 268 272 277 281 285 288 289 289 290 292 296 301 304 305
343 338 323 284 229 212 199 190 197 203 211 216 216 214 213 213 213 215 220 222 224 224 224 225 223 224 226 228 230 234 238 242 245 248 250 254 258 263 266 270 275 278 282 286 285 284 284 288 294 299 302 302 301 300
350 354 347 331 234 206 200 198 198 198 201 203 209 216 222 219 212 210 212 214 215 217 219 222 224 227 231 234 238 242 244 248 250 253 257 259 264 267 271 275 277 281 281 280 283 288 293 297 300 299 297 296 296 297
332 357 6 5 329 218 207 205 207 212 205 200 195 194 191 195 210 215 213 214 218 222 226 229 232 234 237 240 243 246 249 252 255 258 259 264 267 269 272 275 279 281 282 286 290 294 296 295 293 292 292 294 296 298
287 321 347 17 18 332 218 215 215 215 216 218 217 210 207 204 201 200 206 211 215 219 223 228 231 235 239 244 249 253 256 259 262 263 265 267 268 273 278 279 280 283 288 292 292 290 289 287 288 291 294 295 297 300
266 268 288 325 11 28 26 224 221 222 222 223 225 226 227 228 229 225 221 220 221 223 227 231 234 238 242 245 249 254 257 260 262 266 269 271 271 273 277 282 286 287 286 284 281 280 282 288 291 292 295 297 300 301